Location: Alma
(38.7220°N, 88.9090°W)
Time: 07:48:06
(UTC-06:00)

Vanguard 2 Rocket - Pass Details

Date: 17 November 2019
Orbit: 554 x 3326 km, 32.9° (Epoch: 10 December)

Event Time Altitude Azimuth Distance (km) Brightness Sun altitude
Rises 04:53:42 0° 268° (W) 3,438 - -20.7°
Reaches altitude 10° 04:55:50 10° 262° (W) 2,723 - -20.3°
Exits shadow 04:58:21 26° 249° (WSW) 2,035 8.2 -19.8°
Maximum altitude 05:02:13 49° 189° (S) 1,719 8.2 -19.0°
Drops below altitude 10° 05:13:20 10° 120° (ESE) 4,656 11.6 -16.9°
Sets 05:18:10 0° 116° (ESE) 6,115 12.7 -16.0°
